Kosmos-2547

operational
NORAD ID: 46805 Int'l Des: 2020-075 Owner: VVKOV/IACG Country: RU Constellation: GLONASS
MEOCIRCULAR

Über Kosmos-2547

Beschreibung wird geladen...

Live-Position

3D-Globus wird geladen...

Nächste Überflüge

Höhenverlauf

Altitude vs Time

uPlot chart will show altitude changes over time

Zweizeiliger Elementsatz

1 46805U 20075A 25295.49728860 .00000026 00000-0 00000+0 0 9991
2 46805 64.5959 200.4069 0007238 234.8221 125.1678 2.13099903 38845
Epoch: 22. Okt. 2025 • Age: 105 hours

Aktueller Status

Höhe 19142.6 km
Geschwindigkeit 3.95 km/s
Subsatellitenpunkt 47.77°N, 4.85°W
Startdatum 25. Okt. 2020
Alter 5 years
Typ other

Technische Details

Klassifizierung Payload
Masse 974.00 kg
Trockenmasse 800.00 kg
Gesamtmasse 974.00 kg
Länge 2.00 m
Durchmesser 1.00 m
Spannweite 5.00 m
Form Box + 2 Pan
Hersteller RESH
Bus-Typ Ekspress-1000
Phasenstatus In Orbit
Besitzer/Staat VVKOV/IACG/RU

Große Konstellationen

Loading constellations...